Home > Weather > Laatzen > Past weeks

Flag for Germany Weather for the Past 2 Weeks in Laatzen, Lower Saxony, Germany

Now
59 °F

Passing clouds.


Feels Like: 57 °F
Forecast: 47 / 72 °F
Wind: 9 mph from East

Location: Hannover

Current Time: May 5, 2016 at 1:08:06 PM

Latest Report: May 5, 2016 at 12:20 PM


Visibility: N/A

Pressure: 30.33 "Hg

Humidity: 45%

Dew Point: 37 °F

Location of LaatzenLocation

Historic Weather in Laatzen — Graph

°F

Laatzen Temperature Yesterday

Maximum temperature yesterday: 59 °F (at 4:20 PM)
Minimum temperature yesterday: 36 °F (at 1:50 AM)
Average temperature yesterday: 47 °F

High & Low Weather Summary for the Past Weeks

 TemperatureHumidityPressure
High68 °F (May 2, 3:50 PM)100% (Apr 21, 1:50 AM)30.45 "Hg (Apr 21, 1:50 AM)
Low30 °F (Apr 25, 12:50 AM)26% (May 2, 3:20 PM)29.42 "Hg (Apr 26, 10:50 AM)
Average45 °F77%30.01 "Hg
* Reported Apr 20 11:20 AM — May 5 11:50 AM, Laatzen, Weather by CustomWeather, © 2016

Note: Actual official high and low records may vary slightly from our data, if they occured in-between our weather recording intervals... More about our weather records

Advertising

Laatzen Weather History for the Previous 24 Hours

Scroll right to see more
 ConditionsComfort  
Time TempWeatherWind HumidityBarometerVisibility
11:50 AM
Thu, May 5
59 °FSunny.9 mph45%30.36 "Hg10 mi
11:20 AM59 °FPassing clouds.8 mph45%30.36 "HgN/A
10:50 AM57 °FPassing clouds.8 mph48%30.36 "HgN/A
10:20 AM57 °FPassing clouds.9 mph51%30.36 "HgN/A
9:50 AM55 °FPassing clouds.5 mph59%30.39 "HgN/A
9:20 AM54 °FPassing clouds.3 mph58%30.39 "HgN/A
8:50 AM50 °FPassing clouds.5 mph67%30.39 "HgN/A
8:20 AM46 °FSunny.3 mph82%30.39 "Hg10 mi
7:50 AM45 °FSunny.3 mph81%30.39 "Hg10 mi
7:20 AM39 °FSunny.3 mph87%30.39 "Hg10 mi
6:50 AM37 °FSunny.2 mph93%30.39 "Hg10 mi
6:20 AM37 °FFog.2 mph93%30.39 "HgN/A
5:50 AM37 °FFog.3 mph87%30.39 "HgN/A
5:20 AM37 °FClear.3 mph87%30.39 "Hg10 mi
4:50 AM37 °FPassing clouds.3 mph93%30.39 "HgN/A
4:20 AM37 °FClear.5 mph87%30.39 "Hg10 mi
3:50 AM39 °FClear.3 mph87%30.39 "Hg10 mi
3:20 AM39 °FClear.3 mph87%30.39 "Hg10 mi
2:50 AM41 °FClear.2 mph81%30.39 "Hg10 mi
2:20 AM41 °FClear.3 mph81%30.39 "Hg10 mi
1:50 AM41 °FClear.6 mph81%30.39 "Hg10 mi
1:20 AM41 °FClear.6 mph81%30.39 "Hg10 mi
12:50 AM41 °FClear.3 mph81%30.39 "Hg10 mi
12:20 AM43 °FClear.3 mph76%30.39 "Hg10 mi
11:50 PM
Wed, May 4
43 °FClear.3 mph76%30.39 "Hg10 mi
11:20 PM45 °FClear.5 mph76%30.39 "Hg10 mi
10:50 PM48 °FClear.3 mph62%30.39 "Hg10 mi
10:20 PM46 °FClear.1 mph66%30.39 "Hg10 mi
9:50 PM48 °FSunny.2 mph62%30.36 "Hg10 mi
9:20 PM50 °FSunny.2 mph58%30.36 "Hg10 mi
8:50 PM54 °FPassing clouds.3 mph47%30.36 "HgN/A
8:20 PM55 °FSunny.5 mph47%30.36 "Hg10 mi
7:50 PM57 °FPassing clouds.3 mph48%30.36 "HgN/A
7:20 PM59 °FSunny.2 mph39%30.36 "Hg10 mi
6:50 PM59 °FSunny.2 mph36%30.36 "Hg10 mi
6:20 PM57 °FPassing clouds.5 mph44%30.36 "HgN/A
5:50 PM55 °FSunny.5 mph47%30.36 "Hg10 mi
5:20 PM57 °FSunny.3 mph44%30.36 "Hg10 mi
4:50 PM57 °FSunny.2 mph41%30.36 "Hg10 mi
4:20 PM59 °FSunny.3 mph42%30.36 "Hg10 mi
3:50 PM55 °FPassing clouds.6 mph51%30.39 "HgN/A
3:20 PM55 °FSunny.7 mph47%30.39 "Hg10 mi
2:50 PM55 °FPassing clouds.7 mph51%30.39 "HgN/A
2:20 PM54 °FSunny.6 mph51%30.39 "Hg10 mi
1:50 PM55 °FScattered clouds.7 mph51%30.39 "HgN/A
1:20 PM54 °FScattered clouds.6 mph54%30.39 "HgN/A
Weather by CustomWeather, © 2016

See weather overviewHow to use our weather pages